Retour au catalogue

FREGAT DEB

LostUNKNOWN
NORAD 45945·DEBRIS·🇷🇺 Russia

Lancé Jul 18, 2011 depuis Baikonur Cosmodrome

Loading…

Prochains Passages (prochaines 24 heures)

TLE

PériméSource: Space-Track

Époque: Nov 4, 2022, 17:36 UTC

1 45945U 11037FA  22308.73344442  .00136568  00000-0  00000-0 0  9994
2 45945  51.5711  73.3059 1506516 253.9911  89.0269 10.53183185 84988

Suivez FREGAT DEB en temps réel avec AllMySat

Download on the App Store